Location: Oshawa
(43.9000°N, 78.8670°W)
Time: 15:17:08
(UTC-04:00)

Explorer 7 - Visible Passes

Search period start: 24 April 2014 00:00
Search period end: 04 May 2014 00:00
Orbit: 492 x 710 km, 50.3° (Epoch: 24 April)

Date Brightness Start Highest point End Pass type
(mag) Time Alt. Az. Time Alt. Az. Time Alt. Az.
24 Apr 9.0 02:19:36 24° ENE 02:19:36 24° ENE 02:21:28 10° ENE visible
24 Apr 8.2 03:56:18 25° WNW 03:58:18 39° N 04:02:45 10° ENE visible
24 Apr 8.3 05:35:36 10° WNW 05:40:02 43° NNE 05:44:43 10° E visible
25 Apr 8.6 02:29:57 33° NE 02:29:57 33° NE 02:32:40 10° ENE visible
25 Apr 8.4 04:06:38 16° WNW 04:09:43 37° N 04:14:08 10° ENE visible
25 Apr 8.0 05:46:49 10° WNW 05:51:23 54° NNE 05:56:12 10° E visible
26 Apr 8.2 02:40:16 40° NNE 02:40:16 40° NNE 02:43:52 10° ENE visible
26 Apr 8.4 04:16:57 10° WNW 04:21:07 38° N 04:25:35 10° ENE visible
27 Apr 8.2 02:50:34 38° NNW 02:50:48 38° N 02:55:07 10° ENE visible
27 Apr 8.3 04:28:11 10° WNW 04:32:30 42° NNE 04:37:04 10° E visible
28 Apr 9.5 01:24:11 15° ENE 01:24:11 15° ENE 01:25:01 10° ENE visible
28 Apr 8.4 03:00:52 29° NW 03:02:10 36° N 03:06:28 10° ENE visible
28 Apr 7.9 04:39:22 10° WNW 04:43:48 53° NNE 04:48:32 10° E visible
29 Apr 9.2 01:34:28 21° NE 01:34:28 21° NE 01:36:11 10° ENE visible
29 Apr 8.4 03:11:09 21° NW 03:13:33 37° N 03:17:53 10° ENE visible
29 Apr 7.4 04:50:29 10° WNW 04:55:02 72° NNE 04:59:53 10° ESE visible
30 Apr 8.8 01:44:46 28° NE 01:44:46 28° NE 01:47:24 10° ENE visible
30 Apr 8.3 03:21:27 14° NW 03:24:53 41° NNE 03:29:20 10° E visible
30 Apr 7.1 05:01:37 10° WNW 05:06:11 79° SSW 05:11:02 10° SE visible
01 May 8.6 01:55:06 33° NNE 01:55:06 33° NNE 01:58:42 10° ENE visible
01 May 7.8 03:31:51 10° WNW 03:36:10 51° NNE 03:40:46 10° E visible
01 May 7.3 05:12:48 10° WNW 05:17:13 50° SW 05:21:55 10° SE visible
02 May 8.4 02:05:33 35° N 02:05:54 36° N 02:10:05 10° ENE visible
02 May 7.3 03:42:57 10° WNW 03:47:21 70° NNE 03:52:05 10° ESE visible
02 May 7.9 05:24:08 10° WNW 05:28:10 31° SW 05:32:25 10° SSE visible
02 May 8.2 21:11:20 10° S 21:13:52 17° SE 21:16:29 10° E visible
02 May 6.8 22:50:20 10° WSW 22:53:46 67° WSW 22:53:46 67° WSW visible
03 May 9.8 00:39:35 10° ENE 00:39:35 10° ENE 00:39:37 10° ENE visible
03 May 8.2 02:16:20 36° NNW 02:17:12 40° NNE 02:21:31 10° E visible
03 May 6.9 03:54:02 10° WNW 03:58:28 80° SSW 04:03:13 10° SE visible
03 May 7.5 21:21:17 10° SSW 21:24:40 30° SE 21:28:12 10° ENE visible
03 May 7.2 23:01:30 10° WSW 23:05:23 60° NNW 23:08:13 19° NE visible
